Showing default

GONETS M 12 (M22), 40553

Orbit data source: Space-Track

GONETS M 12 (M22), 40553 is a payload satellite owned by Gonets (CIS) in LEO that was launched on Tue, 31 Mar 2015 UTC via an ROKOT launch vehicle from the Plesetsk Missile And Space Complex (PKMTR). Payload-class satellites include a variety of spacecraft equipped with specific instruments for various scientific and technological missions. These include communications satellites like Starlink; space stations such as the ISS; scientific satellites like the Hubble; Earth observation satellites from companies like Planet Labs, Umbra, and HawkEye 360; GPS; miniature CubeSats for education and research; and military/defense satellites.

Loading next visibility...
Identifier
40553, 2015-020B
Orbit
LEO
Last TLE update
13 hours ago
Origin
Manufacturer
Resehetnev ISS
Mission
Operational Civil Communications
Bus & Motor
STRELA-3M, Unknown motor
Mass
225 kg wet, 225 kg dry
Launch date (UTC)
2015-03-31 (10 years ago)
Launch vehicle
ROKOT
Launch site
Plesetsk Missile And Space Complex (PKMTR)
Object type
Payload
Rocket body
Debris
Shape & HBR
Cyl + 1 Ant, 7 m
Radar Cross Section
1.798 m², Large (>1 m²)

Expand to show TLE details & history

TLE from 13 hours ago
0 GONETS M 12 (M22)
1 40553U 15020B   25181.85102853  .00000018  00000-0  59387-4 0  9999
2 40553  82.4882 250.8969 0015354  39.0062 321.2122 12.42859057465087
Epoch: 2025-06-30T20:25Z
TLE epoch observation values (Epoch: 2025-06-30T20:25:28.864Z)
Latitude
-0.00005°
Longitude
25.37172°
Altitude
1,487.79 km
Speed
7.124 km/s
True Right ascension
16h 43m 35s
True Declination
0° 00' 00"
Sunlit
Object was in full shadow at epoch
Visualization orbit readout
Latitude
-81.64533°
Longitude
-91.64863°
Altitude
1,530.822 km
Speed
7.097 km/s
Apparent Right ascension
09h 03m 10s
Apparent Declination
-63° 00' 02"
Sunlit
Object is in daylight
Visualization observer readout
Local Sidereal Time
21:04:58
Azimuth
179.478° S
Elevation
-66.914°
Doppler factor
1
Orbital elements
Apogee altitude
1,503.942 km
Perigee altitude
1,479.775 km
Semi-major axis
7,869.995 km
Eccentricity
0.00154
Inclination
82.4882°
RAAN
250.8969°
Arg. of periapsis
39.0062°
True anomaly
Unknown
Mean anomaly
321.2122°
Eccentric anomaly
Unknown
Mean motion
3.10872 °/min
Orbital period
115.8 mins
BSTAR
0.000059387
Loading maneuver chart data...
Loading SW <> Apogee altitude chart data...
Loading historical data...
Loading historical data...
Loading historical data...
Loading historical data...
Loading historical data...
Loading historical data...
Loading historical data...

GONETS M 12 (M22) Visibility forecast

Observer location: undefined°, undefined°

Span
Click to sort rows by Start time (UTC) header in descending order
Start Az.
Max El. time (UTC)
Max El. Az.
Max El.
End time (UTC)
End Az.
9 mins2025-07-01 14:26:41.322Z28.229° NE2025-07-01 14:31:41.322Z65.182° ENE15.797°2025-07-01 14:35:41.322Z94.147° ESE
15 mins2025-07-01 16:22:41.322Z354.925° N2025-07-01 16:29:41.322Z109.774° ESE44.71°2025-07-01 16:37:41.322Z170.716° S
10 mins2025-07-01 18:20:41.322Z315.59° NNW2025-07-01 18:24:41.322Z285.262° WNW18.253°2025-07-01 18:30:41.322Z240.923° WSW
9 mins2025-07-02 03:29:41.322Z107.401° ESE2025-07-02 03:33:41.322Z75.845° E17.535°2025-07-02 03:38:41.322Z39.635° NE
16 mins2025-07-02 05:21:41.322Z188.464° SSW2025-07-02 05:28:41.322Z228.941° WSW44.737°2025-07-02 05:37:41.322Z6.83° NNE
8 mins2025-07-02 07:23:41.322Z271.017° WNW2025-07-02 07:27:41.322Z301.975° NW16.142°2025-07-02 07:31:41.322Z331.436° NNW
|